Akron Canton, OH

3:38 PM EDT on July 24, 2017 (GMT -0400)
Akron-Canton Regional

Weather History for KCAK - September, 2013

Change the Weather History Date:

Sunday, September 15, 2013

  Actual Average Record
Temperature  
Mean Temperature 57 °F 64 °F  
Max Temperature 67 °F 74 °F 95 °F (1939)
Min Temperature 47 °F 54 °F 37 °F (1923)
Degree Days  
Heating Degree Days 8 3  
Month to date heating degree days 33 29  
Since 1 July heating degree days 46 49  
Cooling Degree Days 0 2  
Month to date cooling degree days 64 46  
Year to date cooling degree days 788 628  
Growing Degree Days 6 (Base 50)    
Moisture  
Dew Point 48 °F    
Average Humidity 69    
Maximum Humidity 86    
Minimum Humidity 52    
Precipitation  
Precipitation 0.04 in 0.12 in 1.65 in (2002)
Month to date precipitation 1.56 1.78  
Year to date precipitation 28.63 28.98  
Snow  
Snow 0.00 in 0.00 in - ()
Month to date snowfall 0.0 0.0  
Since 1 July snowfall 0.0 0.0  
Since 1 September snowfall 0.0 0.0  
Snow Depth 0.00 in    
Sea Level Pressure  
Sea Level Pressure 30.13 in    
Wind  
Wind Speed 4 mph (SSW)    
Max Wind Speed 13 mph    
Max Gust Speed 15 mph    
Visibility 10 miles    
Events Rain    
T = Trace of Precipitation, MM = Missing Value Source: NWS Daily Summary

Daily Weather History Graph

Daily Weather History Graph

Search for Another Location

Airport or City:

Trip Planner

Search our weather history database for the weather conditions in past years. The results will help you decide how hot, cold, wet, or windy it might be!

Date:

Astronomy

Sep. 15, 2013 Rise Set
Actual Time 7:06 AM EDT 7:34 PM EDT
Civil Twilight 6:38 AM EDT 8:01 PM EDT
Nautical Twilight 6:06 AM EDT 8:34 PM EDT
Astronomical Twilight 5:33 AM EDT 9:07 PM EDT
Moon 5:02 PM EDT (9/15) 2:41 AM EDT (9/15)
Length of Visible Light 13h 22m
Length of Day
12h 27m
Waxing Gibbous, 82% of the Moon is Illuminated
Sep 15
Waxing Gibbous
Sep 19
Full
Sep 26
Last Quarter
Oct 4
New
Oct 11
First Quarter

Hourly Weather History & Observations

Time (EDT) Temp. Dew Point Humidity Pressure Visibility Wind Dir Wind Speed Gust Speed Precip Events Conditions
12:51 AM 51.1 °F 46.9 °F 86% 30.14 in 10.0 mi Calm Calm - N/A   Scattered Clouds
1:51 AM 52.0 °F 46.0 °F 80% 30.13 in 10.0 mi Calm Calm - N/A   Mostly Cloudy
2:51 AM 48.9 °F 45.0 °F 86% 30.13 in 10.0 mi Calm Calm - N/A   Partly Cloudy
3:51 AM 50.0 °F 44.1 °F 80% 30.14 in 10.0 mi Calm Calm - N/A   Partly Cloudy
4:51 AM 48.9 °F 44.1 °F 83% 30.14 in 10.0 mi Calm Calm - N/A   Partly Cloudy
5:51 AM 48.9 °F 44.1 °F 83% 30.16 in 10.0 mi Calm Calm - N/A   Partly Cloudy
6:51 AM 48.0 °F 44.1 °F 86% 30.16 in 10.0 mi South 3.5 mph - N/A   Scattered Clouds
7:51 AM 48.9 °F 45.0 °F 86% 30.18 in 9.0 mi South 3.5 mph - N/A   Mostly Cloudy
8:51 AM 52.0 °F 46.9 °F 83% 30.18 in 10.0 mi South 3.5 mph - N/A   Mostly Cloudy
9:51 AM 57.9 °F 48.9 °F 72% 30.18 in 10.0 mi SSW 4.6 mph - N/A   Mostly Cloudy
10:51 AM 62.1 °F 46.9 °F 58% 30.17 in 10.0 mi WSW 8.1 mph - N/A   Mostly Cloudy
11:51 AM 64.0 °F 48.0 °F 56% 30.15 in 10.0 mi SSW 8.1 mph - N/A   Mostly Cloudy
12:51 PM 64.0 °F 46.9 °F 54% 30.15 in 10.0 mi SSW 5.8 mph - N/A   Overcast
1:51 PM 66.0 °F 48.9 °F 54% 30.13 in 10.0 mi SSW 6.9 mph - N/A   Overcast
2:51 PM 66.9 °F 50.0 °F 54% 30.11 in 10.0 mi SW 5.8 mph - N/A   Overcast
3:51 PM 64.9 °F 48.0 °F 54% 30.10 in 10.0 mi South 5.8 mph - N/A   Overcast
4:51 PM 66.0 °F 48.0 °F 52% 30.09 in 10.0 mi SW 6.9 mph - N/A   Overcast
5:51 PM 66.0 °F 48.0 °F 52% 30.08 in 10.0 mi SSW 8.1 mph - N/A   Overcast
6:51 PM 64.0 °F 51.1 °F 63% 30.08 in 10.0 mi South 5.8 mph - N/A   Overcast
7:51 PM 64.0 °F 48.0 °F 56% 30.09 in 10.0 mi West 3.5 mph - N/A   Overcast
8:51 PM 62.1 °F 48.9 °F 62% 30.11 in 10.0 mi Calm Calm - N/A   Overcast
9:51 PM 60.1 °F 52.0 °F 75% 30.09 in 10.0 mi NNE 4.6 mph - N/A   Overcast
10:51 PM 59.0 °F 54.0 °F 83% 30.09 in 8.0 mi North 6.9 mph - 0.01 in Rain Light Rain
11:51 PM 59.0 °F 54.0 °F 83% 30.10 in 9.0 mi NNE 5.8 mph - 0.00 in   Overcast